Location: Unspecified
(0.0000°N, 0.0000°E)
Time: 23:50:25
(UTC+02:00)

Cosmos 1812 Rocket - Visible Passes

Search period start: 23 September 2017 00:00
Search period end: 03 October 2017 00:00
Orbit: 607 x 631 km, 82.5° (Epoch: 23 September)

Date Brightness Start Highest point End Pass type
(mag) Time Alt. Az. Time Alt. Az. Time Alt. Az.
23 Sep 3.7 20:56:53 10° SSE 21:01:07 48° E 21:05:23 10° NNE visible
24 Sep 3.8 21:14:03 10° S 21:18:27 71° W 21:22:51 10° N visible
25 Sep 5.5 21:31:54 10° SSW 21:35:45 30° W 21:39:38 10° NNW visible
26 Sep 4.7 20:12:02 10° SE 20:15:31 23° E 20:18:59 10° NE visible
26 Sep 6.7 21:50:53 10° WSW 21:53:05 14° W 21:55:17 10° NW visible
27 Sep 3.7 20:28:32 10° S 20:32:50 52° E 20:37:09 10° NNE visible
28 Sep 4.0 20:45:46 10° SSW 20:50:09 66° W 20:54:33 10° N visible
29 Sep 5.7 21:03:41 10° SW 21:07:28 28° W 21:11:16 10° NNW visible
30 Sep 6.9 21:22:53 10° WSW 21:24:48 13° W 21:26:43 10° WNW visible
02 Oct 4.3 20:17:29 10° SSW 20:21:52 61° W 20:26:15 10° N visible
